| time (UTC) | temp F | wind direction | speed MPH | gust MPH | rain 1hr in | rain 24hr in | rain mn in | humidity % | barometer mb |
| 20260505034004 | 59 | 128 | 0.0 | 0.0 | 0.00 | 0.00 | 0.00 | 50 | 1012.3 |
| 20260505033004 | 59 | 128 | 0.0 | 0.0 | 0.00 | 0.00 | 0.00 | 49 | 1012.3 |
| 20260505031004 | 60 | 128 | 0.0 | 0.0 | 0.00 | 0.00 | 0.00 | 48 | 1012.3 |
| 20260505030004 | 60 | 128 | 0.0 | 0.0 | 0.00 | 0.00 | 0.00 | 47 | 1012.3 |
| 20260505025005 | 60 | 128 | 0.0 | 0.0 | 0.00 | 0.00 | 0.00 | 47 | 1012.4 |
| 20260505024005 | 60 | 128 | 0.0 | 0.0 | 0.00 | 0.00 | 0.00 | 46 | 1012.4 |
| 20260505023004 | 61 | 128 | 0.0 | 0.0 | 0.00 | 0.00 | 0.00 | 46 | 1012.4 |
| 20260505022004 | 61 | 128 | 0.0 | 0.0 | 0.00 | 0.00 | 0.00 | 46 | 1012.4 |
| 20260505020004 | 62 | 128 | 0.0 | 0.0 | 0.00 | 0.00 | 0.00 | 45 | 1012.3 |
| 20260505015004 | 62 | 128 | 0.0 | 0.0 | 0.00 | 0.00 | 0.00 | 44 | 1012.3 |
| 20260505013005 | 63 | 128 | 0.0 | 0.0 | 0.00 | 0.00 | 0.00 | 43 | 1012.1 |
| 20260505011004 | 64 | 136 | 0.0 | 2.0 | 0.00 | 0.00 | 0.00 | 42 | 1012.0 |
| 20260505010004 | 64 | 136 | 0.0 | 2.0 | 0.00 | 0.00 | 0.00 | 41 | 1011.9 |
| 20260505005004 | 65 | 138 | 0.0 | 2.0 | 0.00 | 0.00 | 0.00 | 40 | 1011.6 |
| 20260505004005 | 65 | 138 | 0.0 | 6.0 | 0.00 | 0.00 | 0.00 | 40 | 1011.7 |
| 20260505003004 | 66 | 112 | 0.0 | 4.0 | 0.00 | 0.00 | 0.00 | 39 | 1011.6 |
| 20260505002004 | 67 | 92 | 0.0 | 4.0 | 0.00 | 0.00 | 0.00 | 39 | 1011.6 |
| 20260505001004 | 67 | 126 | 1.0 | 5.0 | 0.00 | 0.00 | 0.00 | 38 | 1011.6 |
| 20260505000005 | 68 | 126 | 0.0 | 1.0 | 0.00 | 0.00 | 0.00 | 36 | 1011.6 |
| 20260504234004 | 70 | 124 | 1.0 | 2.0 | 0.00 | 0.00 | 0.00 | 34 | 1011.5 |
| 20260504233004 | 70 | 125 | 0.0 | 2.0 | 0.00 | 0.00 | 0.00 | 33 | 1011.6 |
| 20260504232005 | 71 | 96 | 0.0 | 4.0 | 0.00 | 0.00 | 0.00 | 33 | 1011.5 |
| 20260504231004 | 72 | 96 | 1.0 | 4.0 | 0.00 | 0.00 | 0.00 | 31 | 1011.5 |
| 20260504225004 | 72 | 96 | 1.0 | 6.0 | 0.00 | 0.00 | 0.00 | 26 | 1011.5 |
| 20260504224004 | 72 | 46 | 2.0 | 8.0 | 0.00 | 0.00 | 0.00 | 27 | 1011.5 |
| 20260504222004 | 73 | 84 | 5.0 | 6.0 | 0.00 | 0.00 | 0.00 | 27 | 1011.4 |
| 20260504221004 | 73 | 167 | 1.0 | 6.0 | 0.00 | 0.00 | 0.00 | 25 | 1011.6 |
| 20260504220005 | 73 | 310 | 0.0 | 6.0 | 0.00 | 0.00 | 0.00 | 24 | 1011.7 |
| 20260504215004 | 73 | 13 | 1.0 | 11.0 | 0.00 | 0.00 | 0.00 | 23 | 1011.7 |
| 20260504214004 | 73 | 14 | 2.0 | 8.0 | 0.00 | 0.00 | 0.00 | 24 | 1011.8 |
| 20260504213004 | 74 | 78 | 0.0 | 9.0 | 0.00 | 0.00 | 0.00 | 23 | 1011.9 |
| 20260504212004 | 74 | 69 | 3.0 | 7.0 | 0.00 | 0.00 | 0.00 | 23 | 1011.7 |
| 20260504211004 | 74 | 109 | 6.0 | 7.0 | 0.00 | 0.00 | 0.00 | 22 | 1011.9 |
| 20260504210004 | 74 | 226 | 0.0 | 6.0 | 0.00 | 0.00 | 0.00 | 23 | 1011.9 |
| 20260504205004 | 75 | 115 | 4.0 | 7.0 | 0.00 | 0.00 | 0.00 | 23 | 1011.8 |
| 20260504204004 | 74 | 57 | 5.0 | 8.0 | 0.00 | 0.00 | 0.00 | 23 | 1011.9 |
| 20260504203005 | 74 | 146 | 4.0 | 7.0 | 0.00 | 0.00 | 0.00 | 24 | 1011.9 |
| 20260504201005 | 74 | 81 | 1.0 | 10.0 | 0.00 | 0.00 | 0.00 | 22 | 1012.1 |
| 20260504200004 | 74 | 270 | 4.0 | 8.0 | 0.00 | 0.00 | 0.00 | 22 | 1012.2 |
| 20260504195004 | 74 | 269 | 5.0 | 9.0 | 0.00 | 0.00 | 0.00 | 21 | 1012.4 |
| 20260504192005 | 73 | 322 | 4.0 | 10.0 | 0.00 | 0.00 | 0.00 | 25 | 1012.8 |
| 20260504190004 | 74 | 322 | 2.0 | 8.0 | 0.00 | 0.00 | 0.00 | 22 | 1013.2 |
| 20260504185005 | 74 | 298 | 1.0 | 11.0 | 0.00 | 0.00 | 0.00 | 21 | 1013.1 |
| 20260504184004 | 73 | 101 | 2.0 | 11.0 | 0.00 | 0.00 | 0.00 | 23 | 1013.2 |
| 20260504183004 | 73 | 355 | 3.0 | 6.0 | 0.00 | 0.00 | 0.00 | 22 | 1013.3 |
| 20260504182004 | 73 | 232 | 0.0 | 8.0 | 0.00 | 0.00 | 0.00 | 26 | 1013.5 |
| 20260504181004 | 73 | 62 | 3.0 | 9.0 | 0.00 | 0.00 | 0.00 | 22 | 1013.7 |
| 20260504180005 | 72 | 29 | 1.0 | 9.0 | 0.00 | 0.00 | 0.00 | 20 | 1013.6 |
| 20260504175004 | 72 | 142 | 3.0 | 10.0 | 0.00 | 0.00 | 0.00 | 21 | 1013.7 |
| 20260504173004 | 72 | 82 | 2.0 | 10.0 | 0.00 | 0.00 | 0.00 | 20 | 1014.1 |
| 20260504172004 | 71 | 304 | 5.0 | 8.0 | 0.00 | 0.00 | 0.00 | 22 | 1014.2 |
| 20260504171005 | 71 | 115 | 4.0 | 11.0 | 0.00 | 0.00 | 0.00 | 22 | 1014.5 |
| 20260504151004 | 65 | 330 | 0.0 | 9.0 | 0.00 | 0.00 | 0.00 | 32 | 1015.6 |
| 20260504082004 | 46 | 171 | 0.0 | 0.0 | 0.00 | 0.00 | 0.00 | 64 | 1017.0 |
| 20260504081005 | 46 | 171 | 0.0 | 1.0 | 0.00 | 0.00 | 0.00 | 64 | 1017.1 |
| 20260504050003 | 48 | 60 | 0.0 | 2.0 | 0.00 | 0.00 | 0.00 | 57 | 1017.0 |
| 20260504043004 | 48 | 80 | 0.0 | 0.0 | 0.00 | 0.00 | 0.00 | 54 | 1017.0 |
| 20260504042003 | 48 | 22 | 0.0 | 0.0 | 0.00 | 0.00 | 0.00 | 54 | 1016.8 |
| 20260504041004 | 48 | 22 | 0.0 | 0.0 | 0.00 | 0.00 | 0.00 | 54 | 1016.6 |
| 20260504040004 | 48 | 22 | 0.0 | 0.0 | 0.00 | 0.00 | 0.00 | 54 | 1016.6 |